When you browse on this site, cookies collect data to enhance your experience and personalize the content and advertising you see.
Visit our Privacy Policy to learn more. By continuing to use the site, you agree to this use of cookies and data.
  • En España
  • Lista de países
  • Para 7 días
  • Temperatura del agua
  • El tiempo en el mapa
  • Informadores
  • user-avatar
    Iniciar sesión

    Tiempo cada hora Aranda de Duero

    Hoy, 31 Marzo, Martes

    Tiempo Temperatura Precipitaciones Viento Presión Humedad
    00:00 -2°C° 0 mm 5 mps 688 mmHg 82%
    01:00 -2°C° 0.4 mm 5 mps 687 mmHg 84%
    02:00 -2°C° 0.4 mm 5 mps 686 mmHg 87%
    03:00 -4°C° 0.4 mm 5 mps 685 mmHg 90%
    04:00 -2°C° 0.1 mm 5 mps 685 mmHg 89%
    05:00 -3°C° 0.1 mm 6 mps 685 mmHg 89%
    06:00 -3°C° 0 mm 6 mps 685 mmHg 87%
    07:00 -2°C° 0.1 mm 7 mps 685 mmHg 87%
    08:00 -1°C° 0.1 mm 8 mps 685 mmHg 87%
    09:00 0°C° 0.1 mm 8 mps 685 mmHg 88%
    10:00 +1°C° 0.2 mm 8 mps 685 mmHg 89%
    11:00 +1°C° 0.2 mm 9 mps 685 mmHg 90%
    12:00 +1°C° 0 mm 8 mps 685 mmHg 91%
    13:00 +2°C° 0.4 mm 8 mps 685 mmHg 90%
    14:00 +2°C° 0.4 mm 8 mps 685 mmHg 89%
    15:00 +4°C° 0.4 mm 8 mps 685 mmHg 88%
    16:00 +4°C° 0 mm 8 mps 685 mmHg 87%
    17:00 +4°C° 0 mm 8 mps 685 mmHg 87%
    18:00 +5°C° 0 mm 8 mps 685 mmHg 86%
    19:00 +4°C° 0 mm 8 mps 685 mmHg 88%
    20:00 +4°C° 0 mm 8 mps 686 mmHg 90%
    21:00 +2°C° 0 mm 8 mps 686 mmHg 91%
    22:00 +4°C° 0.7 mm 8 mps 686 mmHg 91%
    23:00 +4°C° 0.7 mm 8 mps 686 mmHg 91%

    Mañana, 1 Abril, Miércoles

    Tiempo Temperatura Precipitaciones Viento Presión Humedad
    00:00 +4°C° 0.7 mm 8 mps 686 mmHg 90%
    01:00 +4°C° 0.3 mm 7 mps 686 mmHg 91%
    02:00 +4°C° 0.3 mm 7 mps 686 mmHg 91%
    03:00 +4°C° 0.3 mm 6 mps 686 mmHg 91%
    04:00 +4°C° 0 mm 6 mps 686 mmHg 92%
    05:00 +5°C° 0 mm 5 mps 687 mmHg 92%
    06:00 +5°C° 0 mm 5 mps 687 mmHg 93%
    07:00 +6°C° 0.1 mm 4 mps 687 mmHg 90%
    08:00 +7°C° 0.1 mm 4 mps 687 mmHg 87%
    09:00 +8°C° 0.1 mm 3 mps 688 mmHg 84%
    10:00 +9°C° 0.2 mm 3 mps 688 mmHg 78%
    11:00 +10°C° 0.2 mm 3 mps 688 mmHg 73%
    12:00 +11°C° 0.2 mm 3 mps 688 mmHg 67%
    13:00 +12°C° 0.4 mm 3 mps 688 mmHg 65%
    14:00 +12°C° 0.4 mm 3 mps 688 mmHg 62%
    15:00 +12°C° 0.4 mm 3 mps 688 mmHg 60%
    16:00 +12°C° 0.5 mm 3 mps 687 mmHg 64%
    17:00 +11°C° 0.5 mm 3 mps 687 mmHg 69%
    18:00 +10°C° 0.5 mm 3 mps 687 mmHg 74%
    19:00 +9°C° 0.1 mm 3 mps 687 mmHg 78%
    20:00 +8°C° 0.1 mm 3 mps 688 mmHg 83%
    21:00 +7°C° 0.1 mm 3 mps 688 mmHg 87%
    22:00 +6°C° 0 mm 2 mps 688 mmHg 87%
    23:00 +6°C° 0 mm 2 mps 688 mmHg 88%

    Pasado mañana, 2 Abril, Jueves

    Tiempo Temperatura Precipitaciones Viento Presión Humedad
    00:00 +6°C° 0 mm 2 mps 688 mmHg 88%
    01:00 +7°C° 0 mm 1 mps 688 mmHg 88%
    02:00 +7°C° 0 mm 1 mps 688 mmHg 88%
    03:00 +7°C° 0 mm 1 mps 687 mmHg 88%
    04:00 +7°C° 0 mm 1 mps 687 mmHg 88%
    05:00 +7°C° 0 mm 1 mps 687 mmHg 88%
    06:00 +7°C° 0 mm 1 mps 687 mmHg 88%
    07:00 +8°C° 0 mm 1 mps 688 mmHg 85%
    08:00 +8°C° 0 mm 2 mps 688 mmHg 81%
    09:00 +9°C° 0 mm 3 mps 688 mmHg 78%
    10:00 +9°C° 0.1 mm 3 mps 688 mmHg 74%
    11:00 +10°C° 0.1 mm 3 mps 688 mmHg 70%
    12:00 +11°C° 0.1 mm 4 mps 688 mmHg 66%
    13:00 +10°C° 0.1 mm 5 mps 688 mmHg 63%
    14:00 +12°C° 0.1 mm 5 mps 688 mmHg 59%
    15:00 +11°C° 0.1 mm 6 mps 688 mmHg 56%
    16:00 +10°C° 0 mm 6 mps 688 mmHg 59%
    17:00 +9°C° 0 mm 6 mps 688 mmHg 61%
    18:00 +9°C° 0 mm 6 mps 688 mmHg 64%
    19:00 +7°C° 0 mm 6 mps 689 mmHg 69%
    20:00 +6°C° 0 mm 5 mps 689 mmHg 73%
    21:00 +3°C° 0 mm 5 mps 690 mmHg 78%
    22:00 +4°C° 0 mm 4 mps 690 mmHg 80%
    23:00 +3°C° 0 mm 4 mps 690 mmHg 81%

    3 Abril, Viernes

    Tiempo Temperatura Precipitaciones Viento Presión Humedad
    00:00 +2°C° 0 mm 3 mps 690 mmHg 83%
    01:00 +3°C° 0 mm 2 mps 690 mmHg 83%
    02:00 +2°C° 0 mm 2 mps 690 mmHg 83%
    03:00 +2°C° 0 mm 2 mps 690 mmHg 83%
    04:00 +2°C° 0 mm 1 mps 690 mmHg 82%
    05:00 +2°C° 0 mm 1 mps 690 mmHg 81%
    06:00 +2°C° 0 mm 1 mps 690 mmHg 80%
    07:00 +4°C° 0 mm 1 mps 690 mmHg 74%
    08:00 +6°C° 0 mm 1 mps 690 mmHg 68%
    09:00 +7°C° 0 mm 0 mps 691 mmHg 62%
    10:00 +10°C° 0 mm 1 mps 691 mmHg 57%
    11:00 +11°C° 0 mm 1 mps 691 mmHg 51%
    12:00 +13°C° 0 mm 1 mps 691 mmHg 46%
    13:00 +14°C° 0 mm 1 mps 690 mmHg 43%
    14:00 +15°C° 0 mm 1 mps 690 mmHg 40%
    15:00 +15°C° 0 mm 1 mps 690 mmHg 37%
    16:00 +15°C° 0 mm 1 mps 689 mmHg 41%
    17:00 +14°C° 0 mm 1 mps 689 mmHg 45%
    18:00 +13°C° 0 mm 1 mps 689 mmHg 49%
    19:00 +12°C° 0 mm 1 mps 689 mmHg 51%
    20:00 +11°C° 0 mm 1 mps 690 mmHg 54%
    21:00 +9°C° 0 mm 1 mps 690 mmHg 56%
    22:00 +9°C° 0 mm 1 mps 690 mmHg 60%
    23:00 +7°C° 0 mm 2 mps 690 mmHg 64%

    4 Abril, Sábado

    Tiempo Temperatura Precipitaciones Viento Presión Humedad
    00:00 +7°C° 0 mm 2 mps 690 mmHg 67%
    01:00 +6°C° 0 mm 2 mps 690 mmHg 72%
    02:00 +6°C° 0 mm 2 mps 690 mmHg 77%
    03:00 +6°C° 0 mm 2 mps 690 mmHg 81%
    04:00 +5°C° 0 mm 2 mps 690 mmHg 83%
    05:00 +5°C° 0 mm 2 mps 690 mmHg 86%
    06:00 +5°C° 0 mm 2 mps 690 mmHg 88%
    07:00 +7°C° 0 mm 3 mps 690 mmHg 80%
    08:00 +9°C° 0 mm 3 mps 690 mmHg 73%
    09:00 +11°C° 0 mm 4 mps 690 mmHg 65%
    10:00 +12°C° 0 mm 4 mps 690 mmHg 59%
    11:00 +14°C° 0 mm 5 mps 691 mmHg 52%
    12:00 +15°C° 0 mm 5 mps 691 mmHg 46%
    13:00 +16°C° 0 mm 5 mps 690 mmHg 45%
    14:00 +16°C° 0 mm 6 mps 690 mmHg 43%
    15:00 +16°C° 0 mm 6 mps 689 mmHg 42%
    16:00 +15°C° 0 mm 5 mps 689 mmHg 46%
    17:00 +14°C° 0 mm 5 mps 689 mmHg 51%
    18:00 +13°C° 0 mm 5 mps 689 mmHg 56%
    19:00 +12°C° 0 mm 5 mps 689 mmHg 62%
    20:00 +10°C° 0 mm 5 mps 689 mmHg 68%
    21:00 +9°C° 0 mm 5 mps 690 mmHg 74%
    22:00 +8°C° 0 mm 5 mps 690 mmHg 76%
    23:00 +8°C° 0 mm 5 mps 690 mmHg 77%

    5 Abril, Domingo

    Tiempo Temperatura Precipitaciones Viento Presión Humedad
    00:00 +8°C° 0 mm 5 mps 690 mmHg 79%
    01:00 +7°C° 0 mm 4 mps 690 mmHg 80%
    02:00 +7°C° 0 mm 4 mps 689 mmHg 81%
    03:00 +7°C° 0 mm 4 mps 689 mmHg 82%
    04:00 +6°C° 0 mm 4 mps 689 mmHg 83%
    05:00 +6°C° 0 mm 4 mps 689 mmHg 84%
    06:00 +6°C° 0 mm 4 mps 689 mmHg 86%
    07:00 +8°C° 0 mm 4 mps 689 mmHg 79%
    08:00 +10°C° 0 mm 5 mps 689 mmHg 72%
    09:00 +11°C° 0 mm 6 mps 689 mmHg 65%
    10:00 +13°C° 0.1 mm 6 mps 689 mmHg 65%
    11:00 +12°C° 0.1 mm 7 mps 689 mmHg 64%
    12:00 +14°C° 0.1 mm 7 mps 689 mmHg 64%
    13:00 +12°C° 0.5 mm 7 mps 689 mmHg 68%
    14:00 +11°C° 0.5 mm 6 mps 688 mmHg 73%
    15:00 +10°C° 0.5 mm 6 mps 688 mmHg 77%
    16:00 +10°C° 0.1 mm 5 mps 688 mmHg 77%
    17:00 +10°C° 0.1 mm 5 mps 688 mmHg 77%
    18:00 +12°C° 0.1 mm 4 mps 688 mmHg 77%
    19:00 +11°C° 0.3 mm 4 mps 688 mmHg 81%
    20:00 +11°C° 0.3 mm 4 mps 688 mmHg 84%
    21:00 +10°C° 0.3 mm 3 mps 689 mmHg 87%
    22:00 +10°C° 0.2 mm 3 mps 689 mmHg 88%
    23:00 +10°C° 0.2 mm 3 mps 689 mmHg 89%
    Mostrar más